This is the latest recevied weather packets stored in our database for station/object VE6EN. If no packets are shown the sender has not sent any weather packets the latest 10 day(s).
| Time | Temp. | Humidity | Pressure | Rain* | Wind** | Luminosity | Snow |
|---|---|---|---|---|---|---|---|
| 1787853024 | 18.33° C | 52% | 1011.9 hPa | 0 mm | - | - | - |
| 1787852407 | 18.33° C | 55% | 1012.1 hPa | 0 mm | - | - | - |
| 1787850600 | 18.33° C | 53% | 1012.1 hPa | 0 mm | - | - | - |
| 1787850004 | 18.33° C | 52% | 1012.2 hPa | 0 mm | - | - | - |
| 1787849419 | 18.33° C | 50% | 1012.3 hPa | 0 mm | - | - | - |
| 1787848206 | 18.33° C | 52% | 1012.4 hPa | 0 mm | - | - | - |
| 1787847604 | 17.78° C | 55% | 1012.3 hPa | 0 mm | - | - | - |
| 1787847000 | 17.78° C | 54% | 1012.3 hPa | 0 mm | - | - | - |
| 1787846406 | 17.78° C | 57% | 1012.4 hPa | 0 mm | - | - | - |
| 1787845800 | 17.22° C | 60% | 1012.4 hPa | 0 mm | - | - | - |
| 1787845203 | 17.22° C | 60% | 1012.4 hPa | 0 mm | - | - | - |
| 1787845087 | 17.22° C | 60% | 1012.4 hPa | 0 mm | - | - | - |
| 1787835608 | 13.89° C | 63% | 1012.1 hPa | 0 mm | - | - | - |
| 1787835003 | 13.89° C | 64% | 1012.1 hPa | 0 mm | - | - | - |
| 1787834403 | 13.89° C | 64% | 1012.1 hPa | 0 mm | - | - | - |
| 1787833804 | 13.89° C | 64% | 1012.2 hPa | 0 mm | - | - | - |
| 1787833204 | 13.89° C | 63% | 1012.1 hPa | 0 mm | - | - | - |
| 1787832603 | 13.89° C | 63% | 1012.1 hPa | 0 mm | - | - | - |
| 1787832006 | 13.89° C | 64% | 1012 hPa | 0 mm | - | - | - |
| 1787831404 | 13.89° C | 64% | 1012.2 hPa | 0 mm | - | - | - |
| 1787830813 | 13.89° C | 62% | 1012.2 hPa | 0 mm | - | - | - |
| 1787830199 | 14.44° C | 62% | 1012.3 hPa | 0 mm | - | - | - |
| 1787829600 | 14.44° C | 60% | 1012.2 hPa | 0 mm | - | - | - |
| 1787829003 | 15° C | 59% | 1012.2 hPa | 0 mm | - | - | - |
| 1787828405 | 15.56° C | 57% | 1012.3 hPa | 0 mm | - | - | - |
* Rain latest hour (hover to see other rain measurements)
** Current wind speed in m/s (hover to see current wind gust speed)